Weather History for Budapest Ferihegy, Hungary

Change the Weather History Date:

Sunday, May 19, 2013

  Actual Average Record
Temperature  
Mean Temperature 66 °F -  
Max Temperature 80 °F 73 °F 80 °F (1997)
Min Temperature 51 °F 51 °F 39 °F (1999)
Growing Degree Days 16 (Base 50)    
Moisture  
Dew Point 52 °F    
Average Humidity 62    
Maximum Humidity 94    
Minimum Humidity 36    
Precipitation  
Precipitation 0.00 in - - ()
Sea Level Pressure  
Sea Level Pressure 29.88 in    
Wind  
Wind Speed 7 mph ()    
Max Wind Speed 16 mph    
Max Gust Speed 32 mph    
Visibility 6.2 miles    
Events Rain , Thunderstorm    
Averages and records for this station are not official NWS values.
T = Trace of Precipitation, MM = Missing Value Source: Averaged Metar Reports

Daily Weather History Graph

Daily Weather History Graph

Search for Another Location

Airport:

Trip Planner

Search our weather history database for the weather conditions in past years. The results will help you decide how hot, cold, wet, or windy it might be!

Date:

Astronomy

May. 19, 2013 Rise Set
Actual Time 5:01 AM CEST 8:18 PM CEST
Civil Twilight 4:24 AM CEST 8:55 PM CEST
Nautical Twilight 3:35 AM CEST 9:44 PM CEST
Astronomical Twilight 2:34 AM CEST 10:46 PM CEST
Moon 1:38 PM CEST (5/19) 1:42 AM CEST (5/19)
Length of Visible Light 16h 31m
Length of Day
15h 16m
Waxing Gibbous, 62% of the Moon is Illuminated
May 19
Waxing Gibbous
May 25
Full
May 31
Last Quarter
Jun 8
New
Jun 16
First Quarter

Hourly Weather History & Observations

Time (CEST) Temp. Heat Index Dew Point Humidity Pressure Visibility Wind Dir Wind Speed Gust Speed Precip Events Conditions
12:00 AM 53.6 °F - 50.0 °F 88% 29.95 in - ESE 5.8 mph - N/A   Clear
12:30 AM 53.6 °F - 51.8 °F 94% 29.95 in - East 4.6 mph - N/A   Clear
1:00 AM 55.4 °F - 51.8 °F 88% 29.95 in - ENE 5.8 mph - N/A   Clear
1:30 AM 53.6 °F - 51.8 °F 94% 29.95 in - Variable 3.5 mph - N/A   Clear
2:00 AM 51.8 °F - 50.0 °F 94% 29.95 in - ENE 4.6 mph - N/A   Clear
2:30 AM 51.8 °F - 50.0 °F 94% 29.95 in - Variable 3.5 mph - N/A   Clear
3:00 AM 51.8 °F - 50.0 °F 94% 29.95 in - Variable 3.5 mph - N/A   Clear
3:30 AM 51.8 °F - 50.0 °F 94% 29.95 in - ENE 4.6 mph - N/A   Clear
4:00 AM 51.8 °F - 48.2 °F 88% 29.95 in - Variable 3.5 mph - N/A   Clear
4:30 AM 51.8 °F - 48.2 °F 88% 29.95 in - Variable 3.5 mph - N/A   Clear
5:00 AM 51.8 °F - 48.2 °F 88% 29.95 in - Variable 3.5 mph - N/A   Clear
5:30 AM 51.8 °F - 48.2 °F 88% 29.95 in - Calm Calm - N/A   Clear
6:00 AM 55.4 °F - 50.0 °F 82% 29.95 in - ENE 5.8 mph - N/A   Clear
6:30 AM 57.2 °F - 53.6 °F 88% 29.95 in - ENE 4.6 mph - N/A   Clear
7:00 AM 60.8 °F - 53.6 °F 77% 29.95 in - East 4.6 mph - N/A   Clear
7:30 AM 62.6 °F - 55.4 °F 77% 29.95 in - ESE 5.8 mph - N/A   Clear
8:00 AM 66.2 °F - 55.4 °F 68% 29.92 in - ESE 6.9 mph - N/A   Clear
8:30 AM 68.0 °F - 51.8 °F 56% 29.92 in - SE 8.1 mph - N/A   Clear
9:00 AM 68.0 °F - 51.8 °F 56% 29.92 in - SSE 11.5 mph - N/A   Clear
9:30 AM 69.8 °F - 51.8 °F 53% 29.92 in - SE 11.5 mph - N/A   Clear
10:00 AM 71.6 °F - 51.8 °F 50% 29.92 in - SE 10.4 mph - N/A   Clear
10:30 AM 73.4 °F - 50.0 °F 44% 29.92 in - SSE 10.4 mph - N/A   Clear
11:00 AM 73.4 °F - 51.8 °F 47% 29.92 in - SSE 11.5 mph - N/A   Clear
11:30 AM 75.2 °F - 51.8 °F 44% 29.89 in - SE 11.5 mph - N/A   Clear
12:00 PM 77.0 °F - 51.8 °F 41% 29.89 in - SSE 11.5 mph - N/A   Clear
12:30 PM 77.0 °F - 51.8 °F 41% 29.89 in - SE 12.7 mph - N/A   Clear
1:00 PM 77.0 °F - 53.6 °F 44% 29.86 in - ESE 11.5 mph - N/A   Clear
1:30 PM 78.8 °F - 50.0 °F 36% 29.86 in - SE 11.5 mph - N/A   Clear
2:00 PM 78.8 °F - 50.0 °F 36% 29.86 in - SE 12.7 mph - N/A   Clear
2:30 PM 78.8 °F - 51.8 °F 39% 29.86 in - ESE 13.8 mph - N/A   Clear
3:00 PM 78.8 °F - 51.8 °F 39% 29.83 in - ESE 15.0 mph - N/A   Clear
3:30 PM 78.8 °F - 51.8 °F 39% 29.83 in - ESE 15.0 mph - N/A   Clear
4:00 PM 80.6 °F 80.3 °F 53.6 °F 39% 29.80 in - ESE 16.1 mph - N/A   Clear
4:30 PM 80.6 °F 80.3 °F 53.6 °F 39% 29.80 in - ESE 15.0 mph - N/A   Clear
5:00 PM 80.6 °F - 51.8 °F 37% 29.80 in - ESE 13.8 mph - N/A   Clear
5:30 PM 78.8 °F - 53.6 °F 42% 29.80 in - ESE 15.0 mph - N/A   Clear
6:00 PM 78.8 °F - 53.6 °F 42% 29.80 in - ESE 13.8 mph - N/A   Clear
6:30 PM 78.8 °F - 53.6 °F 42% 29.77 in - ESE 12.7 mph - N/A   Clear
7:00 PM 77.0 °F - 53.6 °F 44% 29.77 in - ESE 10.4 mph - N/A   Clear
7:30 PM 75.2 °F - 55.4 °F 50% 29.77 in - East 10.4 mph - N/A   Clear
8:00 PM 73.4 °F - 55.4 °F 53% 29.77 in - East 9.2 mph - N/A   Clear
8:30 PM 71.6 °F - 53.6 °F 53% 29.77 in - East 10.4 mph - N/A   Clear
9:00 PM 71.6 °F - 55.4 °F 57% 29.77 in - ENE 10.4 mph - N/A   Clear
9:30 PM 71.6 °F - 53.6 °F 53% 29.77 in 6.2 mi East 13.8 mph - N/A Thunderstorm Mostly Cloudy
10:00 PM 71.6 °F - 51.8 °F 50% 29.83 in 6.2 mi South 16.1 mph 32.2 mph N/A Thunderstorm Mostly Cloudy
10:30 PM 66.2 °F - 53.6 °F 64% 29.86 in 6.2 mi West 13.8 mph - N/A Rain , Thunderstorm Light Rain Showers
11:00 PM 62.6 °F - 57.2 °F 82% 29.83 in 6.2 mi WNW 6.9 mph - N/A Rain , Thunderstorm Light Thunderstorms and Rain
11:30 PM 60.8 °F - 59.0 °F 94% 29.86 in 6.2 mi SSE 4.6 mph - N/A Rain , Thunderstorm Light Thunderstorms and Rain